Time,TemperatureF,DewpointF,PressureIn,WindDirection,WindDirectionDegrees,WindSpeedMPH,WindSpeedGustMPH,Humidity,HourlyPrecipIn,Conditions,Clouds,dailyrainin,SoftwareType,DateUTC
2013-08-02 00:13:00,61.9,57.3,29.75,South,180,4.7,-999.0,85,-99.99,,,0.00,Acu-Link.com,2013-08-02 07:13:00,
2013-08-02 00:28:00,61.7,57.5,29.76,ESE,112,2.2,-999.0,86,-99.99,,,0.00,Acu-Link.com,2013-08-02 07:28:00,
2013-08-02 00:43:00,61.9,57.3,29.76,SSE,157,6.8,-999.0,85,-99.99,,,0.00,Acu-Link.com,2013-08-02 07:43:00,
2013-08-02 00:59:00,61.7,57.5,29.75,SE,135,3.2,-999.0,86,-99.99,,,0.00,Acu-Link.com,2013-08-02 07:59:00,
2013-08-02 01:14:00,61.7,57.5,29.75,SSW,202,1.7,-999.0,86,-99.99,,,0.00,Acu-Link.com,2013-08-02 08:14:00,
2013-08-02 01:29:00,61.5,57.6,29.76,South,180,1.7,-999.0,87,-99.99,,,0.00,Acu-Link.com,2013-08-02 08:29:00,
2013-08-02 01:44:00,61.2,57.3,29.75,South,180,2.2,-999.0,87,-99.99,,,0.00,Acu-Link.com,2013-08-02 08:44:00,
2013-08-02 01:59:00,61.2,57.3,29.76,SE,135,3.2,-999.0,87,-99.99,,,0.00,Acu-Link.com,2013-08-02 08:59:00,
2013-08-02 02:14:00,61.2,57.3,29.75,ESE,112,4.2,-999.0,87,-99.99,,,0.00,Acu-Link.com,2013-08-02 09:14:00,
2013-08-02 02:29:00,61.0,57.1,29.76,SW,225,2.7,-999.0,87,-99.99,,,0.00,Acu-Link.com,2013-08-02 09:29:00,
2013-08-02 02:44:00,60.8,57.2,29.76,NNE,22,7.8,-999.0,88,-99.99,,,0.00,Acu-Link.com,2013-08-02 09:44:00,
2013-08-02 02:59:00,60.8,56.9,29.75,ESE,112,2.7,-999.0,87,-99.99,,,0.00,Acu-Link.com,2013-08-02 09:59:00,
2013-08-02 03:15:00,60.8,56.9,29.76,South,180,4.7,-999.0,87,-99.99,,,0.00,Acu-Link.com,2013-08-02 10:15:00,
2013-08-02 03:30:00,60.8,56.9,29.75,South,180,1.1,-999.0,87,-99.99,,,0.00,Acu-Link.com,2013-08-02 10:30:00,
2013-08-02 03:45:00,60.8,56.3,29.76,NNW,337,4.2,-999.0,85,-99.99,,,0.00,Acu-Link.com,2013-08-02 10:45:00,
2013-08-02 04:00:00,61.0,56.8,29.76,ESE,112,1.1,-999.0,86,-99.99,,,0.00,Acu-Link.com,2013-08-02 11:00:00,
2013-08-02 04:15:00,60.8,56.6,29.75,SW,225,2.2,-999.0,86,-99.99,,,0.00,Acu-Link.com,2013-08-02 11:15:00,
2013-08-02 04:30:00,61.0,56.8,29.76,ESE,112,5.3,-999.0,86,-99.99,,,0.00,Acu-Link.com,2013-08-02 11:30:00,
2013-08-02 04:46:00,61.0,57.1,29.76,West,270,2.7,-999.0,87,-99.99,,,0.00,Acu-Link.com,2013-08-02 11:46:00,
2013-08-02 05:01:00,60.8,56.9,29.76,ESE,112,4.7,-999.0,87,-99.99,,,0.00,Acu-Link.com,2013-08-02 12:01:00,
2013-08-02 05:16:00,60.6,57.0,29.76,South,180,4.2,-999.0,88,-99.99,,,0.00,Acu-Link.com,2013-08-02 12:16:00,
2013-08-02 05:31:00,60.4,57.5,29.76,ESE,112,1.1,-999.0,90,-99.99,,,0.00,Acu-Link.com,2013-08-02 12:31:00,
2013-08-02 06:01:00,60.1,57.5,29.77,SSW,202,2.2,-999.0,91,-99.99,,,0.00,Acu-Link.com,2013-08-02 13:01:00,
2013-08-02 06:31:00,60.6,56.7,29.77,ESE,112,4.2,-999.0,87,-99.99,,,0.00,Acu-Link.com,2013-08-02 13:31:00,
2013-08-02 06:46:00,60.6,56.7,29.78,ESE,112,2.7,-999.0,87,-99.99,,,0.00,Acu-Link.com,2013-08-02 13:46:00,
2013-08-02 07:01:00,59.9,57.3,29.79,ESE,112,1.1,-999.0,91,-99.99,,,0.00,Acu-Link.com,2013-08-02 14:01:00,
2013-08-02 07:17:00,59.4,58.5,29.79,SW,225,2.7,-999.0,97,-99.99,,,0.00,Acu-Link.com,2013-08-02 14:17:00,
2013-08-02 07:32:00,59.4,58.0,29.80,ESE,112,2.2,-999.0,95,-99.99,,,0.00,Acu-Link.com,2013-08-02 14:32:00,
2013-08-02 07:47:00,59.7,58.3,29.80,SE,135,1.1,-999.0,95,-99.99,,,0.00,Acu-Link.com,2013-08-02 14:47:00,
2013-08-02 08:02:00,60.1,58.4,29.80,South,180,3.7,-999.0,94,-99.99,,,0.00,Acu-Link.com,2013-08-02 15:02:00,
2013-08-02 08:17:00,60.6,58.0,29.80,ESE,112,1.1,-999.0,91,-99.99,,,0.00,Acu-Link.com,2013-08-02 15:17:00,
2013-08-02 08:32:00,60.8,57.8,29.80,ESE,112,1.7,-999.0,90,-99.99,,,0.00,Acu-Link.com,2013-08-02 15:32:00,
2013-08-02 08:47:00,61.7,58.1,29.79,SSW,202,2.2,-999.0,88,-99.99,,,0.00,Acu-Link.com,2013-08-02 15:47:00,
2013-08-02 09:02:00,61.9,57.7,29.79,East,90,0.0,-999.0,86,-99.99,,,0.00,Acu-Link.com,2013-08-02 16:02:00,
2013-08-02 09:17:00,61.7,57.5,29.80,SW,225,5.8,-999.0,86,-99.99,,,0.00,Acu-Link.com,2013-08-02 16:17:00,
2013-08-02 09:32:00,61.0,58.4,29.79,SW,225,4.2,-999.0,91,-99.99,,,0.00,Acu-Link.com,2013-08-02 16:32:00,
2013-08-02 09:48:00,61.3,58.0,29.80,East,90,2.2,-999.0,89,-99.99,,,0.00,Acu-Link.com,2013-08-02 16:48:00,
2013-08-02 10:03:00,61.0,58.4,29.80,SW,225,2.7,-999.0,91,-99.99,,,0.00,Acu-Link.com,2013-08-02 17:03:00,
2013-08-02 10:18:00,61.5,58.8,29.80,SSW,202,1.7,-999.0,91,-99.99,,,0.00,Acu-Link.com,2013-08-02 17:18:00,
2013-08-02 10:33:00,61.0,59.3,29.81,South,180,2.2,-999.0,94,-99.99,,,0.00,Acu-Link.com,2013-08-02 17:33:00,
2013-08-02 10:48:00,61.0,59.0,29.81,NNE,22,2.7,-999.0,93,-99.99,,,0.00,Acu-Link.com,2013-08-02 17:48:00,
2013-08-02 11:03:00,61.9,58.3,29.80,SSW,202,2.2,-999.0,88,-99.99,,,0.00,Acu-Link.com,2013-08-02 18:03:00,
2013-08-02 11:18:00,62.4,58.5,29.80,SSW,202,4.7,-999.0,87,-99.99,,,0.00,Acu-Link.com,2013-08-02 18:18:00,
2013-08-02 11:33:00,62.2,58.3,29.81,ESE,112,4.2,-999.0,87,-99.99,,,0.00,Acu-Link.com,2013-08-02 18:33:00,
2013-08-02 11:49:00,62.4,59.1,29.81,South,180,0.0,-999.0,89,-99.99,,,0.00,Acu-Link.com,2013-08-02 18:49:00,
2013-08-02 12:04:00,62.4,59.7,29.80,SE,135,2.7,-999.0,91,-99.99,,,0.01,Acu-Link.com,2013-08-02 19:04:00,
2013-08-02 12:19:00,62.4,59.4,29.80,ESE,112,1.1,-999.0,90,-99.99,,,0.02,Acu-Link.com,2013-08-02 19:19:00,
2013-08-02 12:34:00,62.6,59.6,29.80,South,180,0.0,-999.0,90,-99.99,,,0.02,Acu-Link.com,2013-08-02 19:34:00,
2013-08-02 12:49:00,63.1,60.1,29.80,SE,135,4.2,-999.0,90,-99.99,,,0.03,Acu-Link.com,2013-08-02 19:49:00,
2013-08-02 13:04:00,62.6,59.9,29.81,SSE,157,1.7,-999.0,91,-99.99,,,0.04,Acu-Link.com,2013-08-02 20:04:00,
2013-08-02 13:19:00,63.1,60.1,29.81,South,180,3.7,-999.0,90,-99.99,,,0.05,Acu-Link.com,2013-08-02 20:19:00,
2013-08-02 13:34:00,63.1,60.1,29.81,South,180,1.1,-999.0,90,-99.99,,,0.05,Acu-Link.com,2013-08-02 20:34:00,
2013-08-02 13:49:00,63.0,60.3,29.81,ESE,112,0.0,-999.0,91,-99.99,,,0.06,Acu-Link.com,2013-08-02 20:49:00,
2013-08-02 14:05:00,63.0,60.0,29.82,SSW,202,2.7,-999.0,90,-99.99,,,0.07,Acu-Link.com,2013-08-02 21:05:00,
2013-08-02 14:35:00,62.2,59.8,29.82,South,180,1.1,-999.0,92,-99.99,,,0.08,Acu-Link.com,2013-08-02 21:35:00,
2013-08-02 14:50:00,62.4,60.6,29.81,SSW,202,0.0,-999.0,94,-99.99,,,0.12,Acu-Link.com,2013-08-02 21:50:00,
2013-08-02 15:05:00,62.4,60.6,29.83,SSW,202,0.0,-999.0,94,-99.99,,,0.12,Acu-Link.com,2013-08-02 22:05:00,
2013-08-02 15:20:00,62.2,60.1,29.82,ESE,112,1.7,-999.0,93,-99.99,,,0.12,Acu-Link.com,2013-08-02 22:20:00,
2013-08-02 15:35:00,62.1,60.0,29.82,SSW,202,0.0,-999.0,93,-99.99,,,0.13,Acu-Link.com,2013-08-02 22:35:00,
2013-08-02 15:50:00,62.2,60.4,29.81,SSW,202,0.0,-999.0,94,-99.99,,,0.13,Acu-Link.com,2013-08-02 22:50:00,
2013-08-02 16:05:00,62.4,60.9,29.82,ESE,112,0.0,-999.0,95,-99.99,,,0.13,Acu-Link.com,2013-08-02 23:05:00,
2013-08-02 16:21:00,62.4,60.3,29.82,SW,225,1.1,-999.0,93,-99.99,,,0.13,Acu-Link.com,2013-08-02 23:21:00,
2013-08-02 16:36:00,62.1,60.0,29.82,SSE,157,0.0,-999.0,93,-99.99,,,0.13,Acu-Link.com,2013-08-02 23:36:00,
2013-08-02 16:51:00,61.7,60.0,29.82,SSW,202,3.2,-999.0,94,-99.99,,,0.13,Acu-Link.com,2013-08-02 23:51:00,
2013-08-02 17:21:00,62.4,60.6,29.81,SW,225,2.2,-999.0,94,-99.99,,,0.13,Acu-Link.com,2013-08-03 00:21:00,
2013-08-02 17:51:00,62.6,60.2,29.80,SSW,202,0.0,-999.0,92,-99.99,,,0.13,Acu-Link.com,2013-08-03 00:51:00,
2013-08-02 18:06:00,62.6,60.2,29.81,SSW,202,0.0,-999.0,92,-99.99,,,0.13,Acu-Link.com,2013-08-03 01:06:00,
2013-08-02 18:22:00,62.6,59.9,29.81,South,180,2.7,-999.0,91,-99.99,,,0.13,Acu-Link.com,2013-08-03 01:22:00,
2013-08-02 18:37:00,62.6,60.2,29.80,South,180,3.7,-999.0,92,-99.99,,,0.13,Acu-Link.com,2013-08-03 01:37:00,
2013-08-02 18:52:00,62.2,59.8,29.81,South,180,1.1,-999.0,92,-99.99,,,0.13,Acu-Link.com,2013-08-03 01:52:00,
2013-08-02 19:07:00,62.2,60.1,29.81,WNW,292,1.1,-999.0,93,-99.99,,,0.13,Acu-Link.com,2013-08-03 02:07:00,
2013-08-02 19:22:00,61.9,60.5,29.81,WSW,247,2.2,-999.0,95,-99.99,,,0.13,Acu-Link.com,2013-08-03 02:22:00,
2013-08-02 19:38:00,61.9,60.5,29.81,West,270,0.0,-999.0,95,-99.99,,,0.13,Acu-Link.com,2013-08-03 02:38:00,
2013-08-02 19:53:00,61.9,60.5,29.82,SSW,202,1.1,-999.0,95,-99.99,,,0.13,Acu-Link.com,2013-08-03 02:53:00,
2013-08-02 20:08:00,62.1,60.4,29.81,South,180,2.2,-999.0,94,-99.99,,,0.13,Acu-Link.com,2013-08-03 03:08:00,
2013-08-02 20:23:00,62.1,60.4,29.82,West,270,1.7,-999.0,94,-99.99,,,0.13,Acu-Link.com,2013-08-03 03:23:00,
2013-08-02 20:38:00,61.9,60.5,29.82,West,270,2.2,-999.0,95,-99.99,,,0.13,Acu-Link.com,2013-08-03 03:38:00,
2013-08-02 20:53:00,61.9,60.7,29.82,West,270,2.2,-999.0,96,-99.99,,,0.13,Acu-Link.com,2013-08-03 03:53:00,
2013-08-02 21:08:00,61.7,60.5,29.83,WSW,247,2.2,-999.0,96,-99.99,,,0.13,Acu-Link.com,2013-08-03 04:08:00,
2013-08-02 21:23:00,61.7,60.8,29.83,SW,225,1.7,-999.0,97,-99.99,,,0.13,Acu-Link.com,2013-08-03 04:23:00,
2013-08-02 21:38:00,61.9,60.7,29.82,SW,225,0.0,-999.0,96,-99.99,,,0.13,Acu-Link.com,2013-08-03 04:38:00,
2013-08-02 21:54:00,61.7,60.5,29.82,WSW,247,1.7,-999.0,96,-99.99,,,0.13,Acu-Link.com,2013-08-03 04:54:00,
2013-08-02 22:09:00,61.9,61.3,29.83,NW,315,0.0,-999.0,98,-99.99,,,0.13,Acu-Link.com,2013-08-03 05:09:00,
2013-08-02 22:24:00,61.5,60.9,29.83,North,0,2.2,-999.0,98,-99.99,,,0.13,Acu-Link.com,2013-08-03 05:24:00,
2013-08-02 22:39:00,61.3,60.7,29.82,NNW,337,2.7,-999.0,98,-99.99,,,0.13,Acu-Link.com,2013-08-03 05:39:00,
2013-08-02 22:54:00,61.3,60.7,29.83,WSW,247,1.7,-999.0,98,-99.99,,,0.13,Acu-Link.com,2013-08-03 05:54:00,
2013-08-02 23:09:00,61.2,60.6,29.84,South,180,0.0,-999.0,98,-99.99,,,0.13,Acu-Link.com,2013-08-03 06:09:00,
2013-08-02 23:24:00,61.2,60.6,29.82,West,270,0.0,-999.0,98,-99.99,,,0.13,Acu-Link.com,2013-08-03 06:24:00,
2013-08-02 23:39:00,61.3,61.0,29.83,NE,45,1.7,-999.0,99,-99.99,,,0.13,Acu-Link.com,2013-08-03 06:39:00,
2013-08-02 23:54:00,61.2,60.6,29.82,NW,315,2.7,-999.0,98,-99.99,,,0.13,Acu-Link.com,2013-08-03 06:54:00,